Date String (YYYY-MM-DD hh:mm:ss) UTC,Instrument flags,absolute air pressure of the measurement (hPa),sample flow rate (lpm),inlet stack bypass flow (lpm),air temperature of the measurement (°C),ambient temperature measured by the external sensor (°C),aerosol sample conditioner tube jacket temperature (°C),OPC LED temperature (°C),internal box temperature (°C),relative humidity of the measurement (%),span deviation,mass concentration of particles derived from Lorenz-Mie calculation of OPC scattering (μg/m³),mass concentration of particles derived from Lorenz-Mie calculation of OPC scattering (μg/m³),mass concentration of particles derived from Lorenz-Mie calculation of OPC scattering (μg/m³)
DateTimeUTC,F1_M11,P_M11,Q1_M11,Q2_M11,T1_M11,T2_M11,T3_M11,T4_M11,T5_M11,U1_M11,ZSPAN_M11,X2_M11,X0_M11,X1_M11
2024-06-09 03:00:00,SystemResetWarning,0832.5,5.00,000.00,029.8,029.1,000.0,038.1,031.6,033.6,0000.0,0004.83,0016.31,0003.44
2024-06-09 03:01:00,SystemResetWarning,0832.5,4.99,000.00,029.8,029.2,000.0,038.1,031.6,033.5,0000.0,0004.88,0015.76,0003.45
2024-06-09 03:02:00,SystemResetWarning,0832.6,4.99,000.00,029.9,029.3,000.0,038.1,031.7,033.4,0000.0,0004.90,0014.47,0003.47
2024-06-09 03:03:00,SystemResetWarning,0832.7,5.00,000.00,029.9,029.4,000.0,038.1,031.7,033.4,0000.0,0004.91,0013.07,0003.49
2024-06-09 03:04:00,SystemResetWarning,0832.6,5.01,000.00,030.0,029.5,000.0,038.1,031.8,033.4,0000.0,0004.93,0012.72,0003.50
2024-06-09 03:05:00,SystemResetWarning,0832.7,5.00,000.00,030.0,029.5,000.0,038.2,031.8,033.3,0000.0,0004.94,0012.63,0003.52
2024-06-09 03:06:00,SystemResetWarning,0832.6,5.01,000.00,030.1,029.6,000.0,038.2,031.9,033.3,0000.0,0004.90,0013.23,0003.54
2024-06-09 03:07:00,SystemResetWarning,0832.6,5.00,000.00,030.1,029.6,000.0,038.2,031.9,033.3,0000.0,0004.90,0013.62,0003.55
2024-06-09 03:08:00,SystemResetWarning,0832.6,5.00,000.00,030.2,029.7,000.0,038.3,032.0,033.2,0000.0,0004.94,0013.37,0003.57
2024-06-09 03:09:00,SystemResetWarning,0832.6,5.00,000.00,030.2,029.7,000.0,038.3,032.0,033.2,0000.0,0005.00,0013.35,0003.60
2024-06-09 03:10:00,SystemResetWarning,0832.6,5.00,000.00,030.2,029.8,000.0,038.3,032.0,033.2,0000.0,0005.00,0013.49,0003.63
2024-06-09 03:11:00,SystemResetWarning,0832.6,5.00,000.00,030.3,029.8,000.0,038.4,032.0,033.1,0000.0,0004.94,0013.71,0003.65
2024-06-09 03:12:00,SystemResetWarning,0832.5,5.01,000.00,030.3,029.8,000.0,038.4,032.1,033.0,0000.0,0004.88,0013.83,0003.67
2024-06-09 03:13:00,SystemResetWarning,0832.5,5.01,000.00,030.3,029.9,000.0,038.5,032.1,033.0,0000.0,0004.86,0014.34,0003.69
2024-06-09 03:14:00,SystemResetWarning,0832.5,4.98,000.00,030.3,029.2,000.0,038.5,031.7,033.1,0000.0,0004.84,0014.18,0003.71
2024-06-09 03:15:00,SystemResetWarning,0832.6,5.00,000.00,029.9,026.9,000.0,038.6,030.7,033.8,0000.0,0004.82,0013.98,0003.75
2024-06-09 03:16:00,SystemResetWarning,0832.6,5.01,000.00,029.6,026.3,000.0,038.5,030.2,034.5,0000.0,0004.86,0013.86,0003.78
2024-06-09 03:17:00,SystemResetWarning,0832.6,5.00,000.00,029.4,026.5,000.0,038.4,030.3,034.9,0000.0,0004.92,0013.62,0003.81
2024-06-09 03:18:00,SystemResetWarning,0832.5,5.00,000.00,029.4,026.9,000.0,038.3,030.5,035.0,0000.0,0004.93,0013.48,0003.83
2024-06-09 03:19:00,SystemResetWarning,0832.6,5.00,000.00,029.4,027.4,000.0,038.2,030.8,034.9,0000.0,0004.95,0013.76,0003.85
2024-06-09 03:20:00,SystemResetWarning,0832.7,5.00,000.00,029.4,027.7,000.0,038.1,030.9,034.9,0000.0,0004.98,0013.85,0003.86
2024-06-09 03:21:00,SystemResetWarning,0832.6,5.00,000.00,029.5,028.0,000.0,038.1,031.1,034.9,0000.0,0005.04,0014.11,0003.88
2024-06-09 03:22:00,SystemResetWarning,0832.6,5.00,000.00,029.5,028.3,000.0,038.1,031.2,034.8,0000.0,0005.14,0014.36,0003.89
2024-06-09 03:23:00,SystemResetWarning,0832.6,4.99,000.00,029.5,028.5,000.0,038.0,031.3,034.6,0000.0,0005.17,0014.44,0003.90
2024-06-09 03:24:00,SystemResetWarning,0832.6,5.01,000.00,029.6,028.7,000.0,038.0,031.3,034.4,0000.0,0005.14,0013.22,0003.90
2024-06-09 03:25:00,SystemResetWarning,0832.7,4.99,000.00,029.7,028.9,000.0,038.0,031.4,034.3,0000.0,0005.18,0013.95,0003.91
2024-06-09 03:26:00,SystemResetWarning,0832.6,4.99,000.00,029.7,029.0,000.0,038.0,031.5,034.1,0000.0,0005.20,0014.68,0003.91
2024-06-09 03:27:00,SystemResetWarning,0832.7,5.00,000.00,029.7,029.1,000.0,038.0,031.5,034.0,0000.0,0005.19,0015.67,0003.90
2024-06-09 03:28:00,SystemResetWarning,0832.7,5.01,000.00,029.8,029.2,000.0,038.1,031.6,033.9,0000.0,0005.23,0016.32,0003.90
2024-06-09 03:29:00,SystemResetWarning,0832.7,5.01,000.00,029.8,029.3,000.0,038.1,031.6,033.8,0000.0,0005.23,0016.34,0003.90
2024-06-09 03:30:00,SystemResetWarning,0832.9,5.00,000.00,029.9,029.4,000.0,038.1,031.7,033.7,0000.0,0005.27,0017.15,0003.90
2024-06-09 03:31:00,SystemResetWarning,0832.8,5.00,000.00,029.9,029.4,000.0,038.1,031.8,033.6,0000.0,0005.27,0017.28,0003.90
2024-06-09 03:32:00,SystemResetWarning,0832.8,4.99,000.00,030.0,029.5,000.0,038.2,031.8,033.5,0000.0,0005.24,0017.24,0003.89
2024-06-09 03:33:00,SystemResetWarning,0832.8,4.99,000.00,030.0,029.6,000.0,038.2,031.8,033.4,0000.0,0005.19,0017.20,0003.89
2024-06-09 03:34:00,SystemResetWarning,0832.7,5.00,000.00,030.1,029.6,000.0,038.2,031.9,033.4,0000.0,0005.15,0017.09,0003.89
2024-06-09 03:35:00,SystemResetWarning,0832.7,5.01,000.00,030.1,029.6,000.0,038.2,031.9,033.4,0000.0,0005.20,0017.97,0003.89
2024-06-09 03:36:00,SystemResetWarning,0832.7,5.01,000.00,030.2,029.7,000.0,038.3,032.0,033.2,0000.0,0005.20,0017.57,0003.87
2024-06-09 03:37:00,SystemResetWarning,0832.7,4.99,000.00,030.2,029.7,000.0,038.3,032.0,033.0,0000.0,0005.19,0017.08,0003.86
2024-06-09 03:38:00,SystemResetWarning,0832.7,5.00,000.00,030.2,029.8,000.0,038.3,032.0,033.0,0000.0,0005.21,0016.24,0003.85
2024-06-09 03:39:00,SystemResetWarning,0832.7,4.99,000.00,030.3,029.8,000.0,038.4,032.1,032.9,0000.0,0005.20,0014.92,0003.84
2024-06-09 03:40:00,SystemResetWarning,0832.7,5.00,000.00,030.3,029.8,000.0,038.4,032.1,032.7,0000.0,0005.20,0015.44,0003.84
2024-06-09 03:41:00,SystemResetWarning,0832.6,5.00,000.00,030.4,029.9,000.0,038.5,032.1,032.6,0000.0,0005.16,0014.53,0003.83
2024-06-09 03:42:00,SystemResetWarning,0832.6,5.00,000.00,030.4,029.9,000.0,038.5,032.1,032.5,0000.0,0005.22,0014.63,0003.84
2024-06-09 03:43:00,SystemResetWarning,0832.6,5.00,000.00,030.4,029.9,000.0,038.5,032.2,032.4,0000.0,0005.27,0015.34,0003.84
2024-06-09 03:44:00,SystemResetWarning,0832.6,5.00,000.00,030.4,030.0,000.0,038.6,032.2,032.3,0000.0,0005.31,0015.90,0003.85
2024-06-09 03:45:00,SystemResetWarning,0832.7,5.00,000.00,030.5,030.0,000.0,038.6,032.2,032.2,0000.0,0005.34,0015.88,0003.85
2024-06-09 03:46:00,SystemResetWarning,0832.7,5.00,000.00,030.5,030.0,000.0,038.6,032.2,032.2,0000.0,0005.32,0015.06,0003.84
2024-06-09 03:47:00,SystemResetWarning,0832.7,5.00,000.00,030.5,030.0,000.0,038.7,032.3,032.1,0000.0,0005.34,0014.95,0003.85
2024-06-09 03:48:00,SystemResetWarning,0832.7,4.99,000.00,030.6,030.0,000.0,038.7,032.3,032.0,0000.0,0005.35,0015.20,0003.86
2024-06-09 03:49:00,SystemResetWarning,0832.6,5.00,000.00,030.4,028.4,000.0,038.7,031.5,032.2,0000.0,0005.34,0015.41,0003.86
2024-06-09 03:50:00,SystemResetWarning,0832.6,5.01,000.00,030.0,026.5,000.0,038.8,030.6,033.0,0000.0,0005.33,0015.53,0003.86
2024-06-09 03:51:00,SystemResetWarning,0832.6,5.00,000.00,029.7,026.3,000.0,038.7,030.3,033.7,0000.0,0005.33,0015.03,0003.85
2024-06-09 03:52:00,SystemResetWarning,0832.6,5.02,000.00,029.5,026.7,000.0,038.5,030.5,034.0,0000.0,0005.35,0015.91,0003.86
2024-06-09 03:53:00,SystemResetWarning,0832.6,5.00,000.00,029.5,027.1,000.0,038.4,030.8,034.0,0000.0,0005.33,0016.37,0003.85
2024-06-09 03:54:00,SystemResetWarning,0832.7,5.00,000.00,029.5,027.6,000.0,038.3,030.9,033.9,0000.0,0005.33,0017.61,0003.86
2024-06-09 03:55:00,SystemResetWarning,0832.7,5.00,000.00,029.6,027.9,000.0,038.3,031.1,033.9,0000.0,0005.33,0018.14,0003.86
2024-06-09 03:56:00,SystemResetWarning,0832.7,5.00,000.00,029.6,028.2,000.0,038.2,031.2,033.8,0000.0,0005.36,0018.02,0003.87
2024-06-09 03:57:00,SystemResetWarning,0832.7,5.00,000.00,029.6,028.4,000.0,038.2,031.3,033.4,0000.0,0005.36,0018.85,0003.89
2024-06-09 03:58:00,SystemResetWarning,0832.7,4.99,000.00,029.7,028.6,000.0,038.2,031.4,033.4,0000.0,0005.32,0019.13,0003.88
2024-06-09 03:59:00,SystemResetWarning,0832.7,5.00,000.00,029.7,028.8,000.0,038.2,031.4,033.2,0000.0,0005.34,0019.13,0003.87
